Home > Weather > Andorra La Vella > Past weeks

Flag for Andorra Past Weather in Andorra La Vella, Andorra — Yesterday and Last 2 Weeks

Now
55 °F

Passing clouds.


Feels Like: 52 °F
Forecast: 29 / 64 °F
Wind: 13 mph from West

Location: Carcassonne Airport

Current Time: May 31, 2016 at 6:08:10 AM

Latest Report: May 31, 2016 at 5:30 AM


Visibility: N/A

Pressure: 30.04 "Hg (26.56 "Hg at 1031m altitude)

Humidity: 88%

Dew Point: 52 °F

Location of Andorra La VellaLocation

Past Weather in Andorra La Vella — Graph

°F

Andorra La Vella Temperature Yesterday

Maximum temperature yesterday: 72 °F (at 2:30 PM)
Minimum temperature yesterday: 52 °F (at 4:30 AM)
Average temperature yesterday: 61 °F

High & Low Weather Summary for the Past Weeks

 TemperatureHumidityPressure
High77 °F (May 21, 2:00 PM)100% (May 18, 7:30 AM)30.24 "Hg (May 18, 7:30 AM)
Low45 °F (May 18, 6:30 AM)31% (May 24, 4:30 PM)29.80 "Hg (May 28, 6:00 PM)
Average61 °F73%30.01 "Hg
* Reported May 16 4:00 AM — May 31 4:30 AM, Andorra La Vella, Weather by CustomWeather, © 2016

Note: Actual official high and low records may vary slightly from our data, if they occured in-between our weather recording intervals... More about our weather records

Advertising

Andorra La Vella Weather History for the Previous 24 Hours

Scroll right to see more
 ConditionsComfort  
Time TempWeatherWind HumidityBarometerVisibility
4:30 AM
Tue, May 31
57 °FOvercast.15 mph82%30.04 "HgN/A
4:00 AM57 °FMostly cloudy.12 mph82%30.04 "HgN/A
3:30 AM55 °FPartly cloudy.9 mph88%30.04 "HgN/A
3:00 AM54 °FPassing clouds.9 mph88%30.04 "HgN/A
2:30 AM54 °FPassing clouds.7 mph88%30.07 "HgN/A
2:00 AM55 °FClear.9 mph82%30.07 "Hg10 mi
1:30 AM55 °FPassing clouds.9 mph82%30.07 "HgN/A
1:00 AM55 °FPassing clouds.10 mph82%30.07 "HgN/A
12:30 AM57 °FPassing clouds.12 mph77%30.07 "HgN/A
12:00 AM57 °FPassing clouds.10 mph77%30.07 "HgN/A
11:30 PM
Mon, May 30
59 °FPassing clouds.13 mph77%30.04 "HgN/A
11:00 PM59 °FPassing clouds.12 mph77%30.04 "HgN/A
10:30 PM59 °FPartly cloudy.13 mph77%30.04 "HgN/A
10:00 PM59 °FScattered clouds.13 mph77%30.04 "HgN/A
9:30 PM59 °FPassing clouds.13 mph77%30.04 "HgN/A
9:00 PM61 °FBroken clouds.13 mph72%30.01 "HgN/A
8:30 PM63 °FPartly sunny.12 mph68%30.01 "HgN/A
8:00 PM63 °FPartly sunny.16 mph68%30.01 "HgN/A
7:30 PM66 °FBroken clouds.15 mph60%29.98 "HgN/A
7:00 PM68 °FMostly cloudy.17 mph60%29.98 "HgN/A
6:30 PM66 °FPartly sunny.20 mph64%29.98 "HgN/A
6:00 PM68 °FBroken clouds.17 mph56%29.98 "HgN/A
5:30 PM66 °FMild.17 mph60%29.98 "HgN/A
5:00 PM68 °FSunny.18 mph49%29.98 "Hg10 mi
4:30 PM70 °FBroken clouds.20 mph50%29.95 "HgN/A
4:00 PM72 °FPassing clouds.18 mph47%29.95 "HgN/A
3:30 PM72 °FBroken clouds.17 mph53%29.95 "HgN/A
3:00 PM72 °FPassing clouds.14 mph57%29.95 "HgN/A
2:30 PM72 °FPartly sunny.13 mph61%29.98 "HgN/A
2:00 PM68 °FBroken clouds.18 mph60%29.98 "HgN/A
1:30 PM70 °FScattered clouds.14 mph57%29.98 "HgN/A
1:00 PM66 °FBroken clouds.10 mph64%30.01 "HgN/A
12:30 PM68 °FPassing clouds.15 mph60%30.01 "HgN/A
12:00 PM68 °FBroken clouds.15 mph60%30.01 "HgN/A
11:30 AM66 °FPartly sunny.16 mph60%30.01 "HgN/A
11:00 AM64 °FBroken clouds.14 mph64%30.01 "HgN/A
10:30 AM64 °FPartly sunny.14 mph64%30.01 "HgN/A
10:00 AM63 °FScattered clouds.15 mph68%30.01 "HgN/A
9:30 AM63 °FScattered clouds.15 mph73%30.01 "HgN/A
9:00 AM61 °FScattered clouds.10 mph77%30.01 "HgN/A
8:30 AM57 °FMostly cloudy.7 mph88%30.01 "HgN/A
8:00 AM55 °FMore clouds than sun.7 mph88%30.01 "HgN/A
7:30 AM55 °FMostly cloudy.8 mph88%30.01 "HgN/A
7:00 AM54 °FPartly cloudy.6 mph94%30.01 "HgN/A
6:30 AM54 °FMostly cloudy.3 mph94%30.01 "HgN/A
6:00 AM54 °FPartly cloudy.6 mph88%30.01 "HgN/A
Weather by CustomWeather, © 2016

See weather overviewHow to use our weather pages